Temperature
24 24 23 24 24 24 24 24 23 24 24 24 23 23 23 23 23 22 22 21 21 20 20 20 19 19 19 19 19 18 18 18 17 17 17 17 17 16 16 16 16 16 16 16
24 23 24 25 25 25 24 24 23 24 25 24 23 23 23 23 23 22 22 22 21 21 20 20 19 19 19 19 19 18 18 18 17 17 17 17 16 16 16 16 16 16 16 16
23 24 25 25 25 24 24 24 23 23 24 24 23 23 23 24 23 23 23 22 22 21 20 20 19 19 19 19 18 18 18 18 17 17 17 17 16 16 16 16 16 16 16 16
24 25 25 24 24 24 23 24 24 24 23 23 23 22 23 24 23 23 23 22 22 22 21 20 19 19 19 19 18 18 18 18 17 17 17 17 16 16 16 16 16 16 16 16
24 24 24 24 24 24 24 24 24 24 23 23 24 23 23 24 23 23 23 22 22 22 21 20 20 19 19 18 18 18 18 18 17 17 17 17 16 16 16 16 16 15 15 15
24 25 25 24 25 25 24 24 24 24 23 22 23 23 22 23 24 23 23 23 22 22 21 21 20 19 19 18 18 18 18 18 17 17 17 17 17 16 16 16 16 16 16 15
23 24 25 25 24 24 24 23 22 21 21 22 25 24 24 25 25 25 24 23 22 22 21 21 20 19 19 18 18 18 18 17 17 17 17 17 17 16 16 16 16 16 16 15
22 22 24 25 24 23 24 23 21 21 22 23 24 24 24 26 25 25 24 23 22 22 21 20 20 19 19 18 18 18 17 17 17 17 17 17 17 17 16 16 16 16 16 16
22 23 24 25 25 25 23 23 24 23 23 23 24 24 25 25 25 25 24 23 22 22 21 20 20 19 19 18 18 17 17 17 17 17 17 17 17 17 17 16 16 16 16 16
23 22 24 24 24 24 24 24 23 22 22 22 23 23 23 23 24 24 24 23 22 22 21 20 20 19 18 18 18 18 17 17 17 17 17 17 17 16 16 16 16 16 16 16
24 22 23 23 23 23 23 23 23 23 23 21 21 22 25 25 24 24 24 23 22 22 21 20 20 19 18 18 18 18 17 17 17 17 17 17 17 16 16 16 16 16 16 16
24 23 22 23 24 25 24 23 23 22 22 22 22 22 26 25 25 24 24 23 22 21 21 20 20 19 18 18 18 17 17 17 17 17 17 17 16 16 16 16 16 16 16 16
23 22 21 21 22 23 23 23 23 23 22 22 21 22 25 25 24 24 23 23 22 21 21 20 20 19 18 18 18 17 17 17 17 17 17 16 16 16 16 16 16 16 16 16
22 22 21 21 21 22 22 23 23 23 22 22 22 23 24 24 24 23 23 22 22 21 21 20 19 19 18 18 18 17 17 17 17 17 16 16 16 16 16 16 16 16 16 15
22 21 22 23 23 23 23 23 23 23 23 22 23 23 24 24 23 23 23 22 22 21 20 20 19 19 18 18 17 17 17 17 17 16 16 16 16 16 16 15 15 15 15 15
21 21 22 22 23 23 23 23 23 23 23 23 23 23 24 24 23 23 22 22 21 21 20 20 19 19 18 18 17 17 17 17 16 16 16 16 16 15 15 15 15 15 15 15
21 21 20 21 22 22 22 23 23 23 23 23 23 23 24 23 23 22 22 21 21 21 20 20 19 18 18 18 17 17 17 16 16 16 16 15 15 15 15 15 15 15 15 15
20 20 20 20 21 20 22 24 24 23 23 24 24 23 23 23 23 22 22 21 21 20 20 19 19 18 18 18 17 17 17 16 16 16 16 15 15 15 15 15 15 15 14 14
21 20 19 19 19 20 22 23 23 23 22 24 23 23 23 23 22 22 21 21 20 20 19 19 19 18 18 18 17 17 17 16 16 16 15 15 15 15 15 15 14 14 14 14
21 20 19 19 19 19 21 23 23 23 21 23 23 22 22 22 21 21 20 20 20 19 19 19 18 18 18 18 17 17 17 16 16 16 15 15 15 15 15 14 14 14 14 14
20 19 19 18 19 20 21 22 22 21 20 22 22 22 22 21 20 20 20 19 19 19 18 18 18 18 17 17 17 17 17 16 16 16 15 15 15 15 14 14 14 14 13 13
19 19 19 19 18 19 21 21 21 21 22 21 21 21 21 20 20 19 19 19 18 18 18 17 17 17 17 17 17 17 16 16 16 15 15 15 15 14 14 14 13 13 13 13
19 19 19 19 19 20 20 20 20 20 20 20 20 20 20 19 19 19 18 18 18 18 17 17 17 17 17 17 16 16 16 16 16 15 15 15 14 14 14 13 13 13 13 13
19 20 19 19 19 20 20 19 19 19 19 19 19 19 19 19 18 18 18 17 17 17 17 17 16 16 16 16 16 16 16 15 15 15 14 14 14 13 13 13 13 13 13 13
18 19 18 18 19 19 19 19 18 18 18 18 18 18 18 18 18 18 17 17 17 16 16 16 16 16 15 15 15 15 15 15 15 14 14 14 13 13 13 13 12 12 12 12
18 18 17 17 18 18 18 18 18 17 17 17 17 17 17 17 17 17 17 17 16 16 16 15 15 15 15 15 15 15 15 14 14 14 14 13 13 13 13 12 12 12 12 12
Wind_Speed
6 6 6 5 6 6 4 4 3 2 5 5 6 6 7 8 7 7 7 9 9 9 9 8 7 7 7 5 6 6 6 5 4 3 3 3 3 2 3 4 6 7 8 7
6 6 5 4 4 5 4 3 3 2 3 4 5 6 7 9 9 7 7 8 9 9 10 9 8 7 6 6 6 7 6 5 5 4 4 3 3 3 3 3 5 6 6 7
7 3 4 6 6 6 5 5 3 3 3 5 5 5 8 9 9 8 8 7 8 10 11 11 9 8 6 6 5 5 6 6 6 5 3 4 3 2 3 3 2 4 6 6
5 5 5 6 6 5 4 4 5 5 5 4 7 4 6 9 9 9 8 7 8 9 10 11 10 9 8 6 6 6 5 6 7 6 4 5 4 3 2 3 3 3 4 4
5 5 6 6 4 4 4 4 6 7 7 7 8 5 4 8 10 10 10 9 8 9 10 11 10 9 8 7 6 6 5 6 6 6 5 4 4 3 3 3 4 3 2 3
7 5 5 6 4 4 4 6 7 7 6 7 8 6 3 6 9 10 10 10 9 9 9 9 10 8 7 7 6 5 4 5 5 6 7 6 5 4 4 4 4 3 2 2
8 7 6 5 5 5 6 5 4 5 5 5 5 4 3 5 6 7 9 10 10 9 8 9 9 9 8 8 7 6 6 5 5 5 6 7 6 5 5 4 4 4 3 2
7 7 8 7 8 6 8 8 5 3 4 3 5 4 3 6 6 6 7 8 9 9 9 8 9 9 8 8 8 8 7 6 5 5 5 5 6 4 3 4 4 4 3 3
4 5 6 7 8 7 7 8 8 8 9 5 4 3 5 7 7 6 8 9 9 9 9 9 9 9 8 8 7 8 8 6 6 5 4 4 4 5 4 4 4 4 4 3
5 4 5 5 6 8 9 7 5 5 4 5 3 3 3 7 7 6 7 8 9 9 8 9 9 9 8 7 7 7 8 7 6 6 5 4 4 4 4 4 5 5 4 4
6 6 6 7 7 8 8 9 7 5 5 4 3 1 2 5 7 7 7 7 8 9 9 8 8 8 8 7 7 6 6 6 6 6 5 5 5 5 5 4 5 5 5 5
5 5 7 8 7 7 8 9 8 5 5 5 4 1 1 3 5 6 7 7 7 8 8 8 8 8 7 7 7 7 7 7 6 5 6 5 5 5 5 5 5 5 5 4
4 5 7 6 6 7 7 8 9 7 7 6 5 2 2 3 5 5 6 7 7 8 8 8 8 8 7 7 7 7 8 7 7 6 6 5 5 5 5 5 5 6 5 4
4 7 8 8 5 4 8 9 10 9 7 7 5 3 2 3 4 4 5 6 6 7 7 7 7 7 7 7 7 7 7 7 7 6 6 5 5 5 4 4 4 4 5 5
6 10 12 11 9 9 9 10 11 11 10 9 6 5 3 3 4 4 4 5 6 6 6 7 7 7 7 6 6 6 6 6 6 6 6 6 6 5 4 4 4 4 4 4
7 9 11 13 12 12 13 12 12 12 11 10 8 6 1 2 3 3 3 4 5 6 6 7 7 7 7 7 6 6 6 7 7 7 6 6 6 6 4 4 4 4 3 3
7 9 9 10 10 11 14 13 12 11 10 8 7 3 1 2 3 3 3 5 5 5 5 5 6 7 8 7 7 7 7 6 7 7 7 7 7 7 6 5 4 5 4 3
9 9 7 8 9 11 6 4 7 8 8 7 4 2 2 3 3 2 2 4 4 5 5 5 5 6 7 7 8 8 7 7 7 7 8 8 7 7 6 5 5 5 4 4
10 8 6 7 9 9 7 5 5 7 7 5 3 2 2 3 3 2 2 2 3 3 3 4 4 4 5 7 8 9 8 8 7 8 8 8 8 7 7 6 5 5 4 4
10 9 8 7 8 8 4 1 2 4 5 2 2 2 2 2 3 2 2 3 3 3 3 3 4 4 5 5 6 8 8 8 8 8 8 9 8 8 7 6 5 4 4 5
9 9 11 11 10 6 2 1 2 4 2 0 0 1 1 2 1 1 3 3 4 3 3 3 3 3 3 5 6 7 8 8 7 7 8 8 8 9 8 6 5 5 4 4
8 7 8 8 9 6 1 1 2 2 2 2 3 2 2 2 3 2 3 3 4 3 3 3 3 2 2 4 5 6 6 7 7 7 8 8 8 8 7 6 5 5 5 5
7 5 3 4 3 0 1 2 3 4 4 4 4 3 2 1 2 2 2 2 3 3 3 3 3 3 3 3 3 4 4 6 7 7 7 8 8 7 7 7 6 5 5 5
6 4 5 5 3 2 2 2 3 4 5 5 4 3 2 0 1 1 2 2 2 2 3 3 3 3 3 3 3 3 3 6 7 7 6 6 7 7 7 6 5 5 5 5
6 5 7 7 5 4 3 3 4 4 3 4 4 3 3 2 1 1 1 2 2 2 3 3 3 3 3 3 3 3 4 5 6 7 7 6 6 6 5 5 4 5 4 5
8 8 7 7 6 5 6 5 5 5 4 4 4 4 4 2 2 1 1 2 2 2 3 3 3 3 3 4 4 4 4 5 6 6 6 6 5 6 5 5 3 2 3 5
Wind_Direction
215 222 231 229 223 244 251 218 206 182 179 202 197 193 183 184 189 190 181 179 174 174 165 155 157 160 162 165 155 143 139 132 120 111 104 99 92 83 76 68 60 53 51 51
216 229 232 236 223 229 238 241 219 194 187 217 210 210 195 187 193 197 196 189 179 169 164 157 160 163 168 162 157 147 142 136 125 109 115 117 105 101 96 73 64 65 59 52
227 225 217 227 223 229 231 244 235 229 207 222 237 229 209 187 188 194 204 192 183 173 170 164 166 162 165 166 158 151 146 141 130 131 123 117 106 99 101 99 80 64 69 63
238 229 227 227 228 239 243 238 240 238 232 229 225 238 216 188 185 195 200 193 186 177 171 165 168 168 172 169 156 162 163 150 142 144 142 145 137 135 135 126 126 109 93 83
236 223 222 233 237 238 249 239 243 247 253 257 241 244 217 175 185 192 192 190 183 178 174 168 169 171 171 165 163 172 166 150 150 152 147 150 144 148 138 127 129 126 109 104
243 237 238 241 243 235 239 241 244 247 252 250 234 231 202 191 188 184 184 184 180 177 170 166 165 164 164 156 158 165 155 150 154 160 160 161 150 147 140 140 142 137 120 104
229 226 223 224 233 220 235 247 242 226 227 237 215 227 195 161 165 172 177 177 173 172 168 167 162 160 159 159 164 165 161 166 168 177 171 163 162 166 160 156 158 150 132 123
227 219 211 215 228 227 229 237 247 259 254 241 213 220 137 139 139 152 159 160 162 168 167 165 160 157 158 164 168 174 173 175 176 184 176 165 159 156 151 161 154 144 135 134
238 225 206 217 233 241 234 242 260 275 279 268 224 173 140 134 140 151 154 155 161 169 168 166 160 157 157 160 170 178 171 172 177 188 173 156 157 152 159 159 142 134 138 135
269 250 209 215 226 235 246 259 261 262 278 269 241 200 178 157 151 156 160 161 165 165 169 167 162 160 160 162 169 172 171 174 178 181 172 156 156 157 155 148 142 137 134 131
257 258 216 210 222 230 231 242 247 258 263 270 277 303 110 150 151 157 158 155 160 165 168 166 161 161 161 163 170 171 166 172 181 178 165 164 166 163 158 150 147 141 139 141
247 264 246 228 231 239 241 240 245 248 265 263 263 259 63 106 129 141 146 150 157 158 161 162 160 161 164 168 173 176 175 178 177 170 163 161 161 160 162 156 149 142 141 142
277 259 261 237 219 219 241 249 251 254 260 261 258 218 148 116 122 128 142 147 151 159 163 161 159 163 167 173 177 179 176 178 173 168 158 158 165 165 165 158 154 152 150 146
280 256 254 255 247 239 238 241 247 250 252 258 251 236 201 144 130 130 132 141 151 158 160 158 158 165 167 174 178 177 175 171 167 163 158 159 158 149 152 151 150 145 147 146
254 257 257 260 260 262 255 248 244 242 246 256 260 251 226 161 145 146 148 152 151 157 160 163 163 165 164 171 174 172 169 164 163 160 160 158 144 135 133 140 145 136 134 131
249 262 266 260 254 256 254 245 242 244 243 250 256 259 234 154 133 136 154 158 162 168 169 172 170 167 169 174 172 169 166 166 165 167 159 145 139 134 134 142 144 133 127 125
245 258 269 267 258 257 251 238 233 238 239 244 248 251 154 147 128 156 185 179 175 170 165 172 174 176 179 180 173 168 167 168 167 160 150 149 148 145 151 160 145 140 143 141
251 256 260 267 262 248 246 226 221 233 240 242 235 224 193 169 161 168 172 180 176 166 165 171 175 180 181 176 172 169 166 166 166 162 159 158 157 154 157 161 153 151 155 157
235 246 253 257 261 261 249 235 226 234 240 240 234 210 220 181 173 163 138 129 143 148 153 161 171 177 176 178 175 170 169 171 172 168 164 161 158 155 159 164 162 161 158 153
222 231 243 250 255 252 253 271 266 256 240 251 226 206 193 192 217 193 104 107 112 119 124 134 159 170 173 177 170 171 175 176 179 173 167 162 161 159 167 170 166 159 152 156
217 225 232 245 252 256 283 304 264 228 232 22 232 208 206 201 160 107 99 99 103 110 119 127 141 153 162 166 168 180 179 182 178 166 162 159 161 163 165 163 162 154 154 155
233 232 235 238 244 243 69 220 250 314 5 23 354 358 29 77 100 103 105 105 115 124 130 131 132 133 149 160 172 180 180 174 161 156 159 160 161 164 164 159 161 162 163 162
240 246 255 244 245 319 22 339 330 349 344 350 355 10 48 56 122 120 126 127 136 141 146 142 140 143 147 159 171 174 165 154 150 153 159 161 159 159 158 160 164 170 169 168
263 266 259 259 256 267 297 290 298 332 330 333 340 351 351 240 159 155 163 150 137 141 144 147 154 155 155 161 171 168 150 154 154 157 158 158 159 157 157 159 168 175 178 178
280 286 278 275 272 282 291 292 308 318 320 318 323 321 309 288 250 214 190 159 143 143 148 158 167 170 172 163 165 155 154 157 160 163 165 167 160 156 154 154 165 174 182 186
263 265 264 268 282 292 290 300 309 311 304 299 300 299 301 286 271 232 195 155 155 163 156 165 174 176 174 166 165 161 160 165 171 174 170 165 159 157 158 155 144 127 157 162
Height
1501 1504 1505 1502 1501 1502 1502 1504 1508 1506 1503 1507 1510 1511 1512 1513 1515 1517 1519 1522 1525 1527 1530 1532 1535 1537 1539 1541 1543 1545 1547 1548 1549 1550 1551 1552 1553 1553 1553 1554 1554 1554 1554 1554
1502 1503 1499 1498 1498 1499 1501 1505 1507 1505 1502 1505 1508 1509 1508 1510 1512 1515 1517 1519 1522 1525 1528 1531 1534 1536 1538 1540 1543 1544 1546 1548 1549 1550 1551 1552 1553 1553 1554 1554 1554 1554 1554 1555
1501 1499 1497 1497 1499 1501 1503 1506 1506 1507 1504 1504 1507 1511 1506 1506 1509 1512 1514 1516 1519 1522 1526 1529 1532 1535 1537 1539 1542 1543 1545 1547 1548 1549 1551 1552 1552 1553 1554 1554 1554 1555 1555 1555
1498 1496 1496 1498 1499 1500 1506 1501 1502 1504 1509 1511 1509 1520 1507 1502 1506 1508 1511 1514 1516 1520 1523 1526 1530 1533 1535 1538 1540 1542 1544 1546 1547 1548 1550 1551 1552 1553 1554 1554 1555 1555 1556 1556
1497 1495 1497 1499 1498 1498 1502 1499 1501 1502 1506 1509 1505 1512 1507 1499 1504 1505 1507 1511 1514 1517 1521 1524 1527 1531 1534 1536 1539 1541 1543 1544 1546 1547 1549 1550 1551 1552 1554 1554 1555 1555 1556 1557
1494 1494 1494 1496 1495 1497 1498 1500 1500 1501 1505 1517 1504 1508 1509 1499 1498 1499 1503 1507 1511 1515 1518 1522 1525 1529 1532 1534 1537 1539 1541 1543 1544 1546 1548 1549 1550 1552 1553 1554 1555 1555 1556 1557
1497 1494 1493 1494 1497 1497 1498 1507 1518 1520 1520 1514 1495 1501 1500 1490 1489 1493 1498 1503 1508 1512 1516 1520 1523 1526 1529 1532 1534 1537 1539 1541 1543 1545 1547 1548 1549 1551 1552 1553 1554 1555 1556 1557
1502 1503 1493 1492 1495 1499 1499 1503 1518 1526 1520 1508 1496 1500 1492 1484 1488 1492 1496 1501 1505 1510 1514 1517 1521 1524 1527 1530 1532 1535 1537 1539 1541 1543 1545 1547 1548 1550 1551 1552 1554 1555 1556 1556
1498 1499 1489 1490 1491 1492 1498 1499 1496 1505 1503 1507 1499 1492 1489 1484 1488 1491 1495 1499 1504 1508 1511 1515 1519 1522 1525 1527 1530 1533 1535 1537 1539 1541 1543 1545 1547 1548 1550 1551 1553 1554 1555 1556
1490 1498 1491 1489 1491 1491 1492 1494 1499 1506 1515 1517 1504 1498 1498 1491 1490 1491 1494 1498 1502 1506 1510 1513 1517 1520 1523 1525 1528 1530 1533 1535 1537 1539 1542 1543 1545 1547 1548 1550 1552 1553 1554 1556
1488 1495 1495 1492 1494 1495 1494 1496 1496 1499 1502 1514 1517 1507 1482 1484 1486 1489 1493 1496 1500 1504 1508 1511 1515 1518 1521 1523 1526 1528 1530 1533 1535 1537 1539 1541 1543 1545 1547 1549 1550 1552 1553 1555
1487 1492 1496 1492 1487 1486 1489 1491 1494 1506 1506 1501 1509 1507 1480 1481 1484 1488 1492 1496 1499 1503 1506 1510 1513 1516 1519 1521 1524 1526 1528 1530 1533 1535 1537 1539 1541 1543 1545 1547 1549 1551 1552 1554
1489 1493 1501 1500 1497 1490 1490 1489 1490 1492 1498 1501 1508 1504 1482 1483 1485 1488 1491 1495 1498 1502 1505 1508 1511 1514 1516 1519 1521 1524 1526 1528 1531 1533 1535 1537 1539 1541 1543 1545 1547 1549 1551 1553
1491 1492 1498 1504 1498 1491 1492 1490 1488 1492 1499 1499 1497 1495 1486 1485 1486 1489 1491 1494 1497 1500 1503 1506 1509 1511 1514 1517 1519 1521 1523 1526 1528 1530 1532 1535 1537 1539 1542 1544 1546 1548 1549 1551
1490 1492 1489 1486 1484 1485 1487 1488 1487 1488 1489 1494 1491 1488 1485 1484 1486 1489 1492 1494 1496 1499 1502 1504 1507 1509 1512 1514 1517 1519 1521 1523 1526 1528 1530 1532 1535 1537 1540 1542 1544 1546 1548 1549
1489 1490 1487 1486 1482 1482 1484 1482 1483 1483 1483 1484 1484 1485 1480 1482 1485 1488 1491 1493 1495 1498 1500 1503 1505 1507 1510 1512 1514 1516 1519 1521 1523 1526 1528 1530 1533 1535 1537 1540 1542 1544 1546 1548
1489 1490 1493 1491 1482 1482 1485 1477 1477 1479 1478 1480 1484 1483 1480 1482 1485 1488 1490 1492 1494 1496 1499 1501 1503 1505 1507 1509 1512 1514 1516 1519 1521 1524 1526 1528 1530 1533 1535 1538 1540 1542 1544 1546
1488 1489 1491 1491 1489 1497 1478 1467 1469 1473 1474 1474 1476 1478 1479 1481 1484 1487 1489 1490 1492 1494 1496 1498 1501 1503 1505 1507 1510 1512 1514 1517 1519 1521 1523 1526 1528 1530 1533 1535 1537 1539 1542 1544
1482 1486 1490 1491 1492 1485 1473 1467 1469 1473 1475 1473 1474 1476 1478 1480 1482 1485 1487 1488 1490 1492 1494 1496 1498 1501 1503 1505 1507 1510 1512 1515 1517 1519 1521 1523 1526 1528 1530 1533 1535 1537 1539 1541
1478 1481 1488 1489 1494 1491 1476 1467 1467 1472 1477 1473 1473 1476 1477 1479 1483 1485 1486 1487 1489 1490 1492 1494 1496 1498 1500 1503 1505 1507 1509 1512 1514 1516 1518 1521 1523 1525 1528 1530 1533 1535 1537 1539
1479 1481 1485 1487 1487 1480 1470 1468 1469 1481 1480 1473 1473 1475 1477 1479 1482 1484 1484 1486 1488 1489 1491 1492 1494 1496 1498 1500 1502 1504 1507 1509 1511 1514 1516 1518 1520 1523 1525 1528 1530 1532 1534 1536
1477 1480 1481 1482 1486 1484 1471 1471 1473 1475 1472 1473 1474 1475 1477 1478 1480 1482 1483 1485 1486 1488 1489 1491 1492 1494 1496 1498 1500 1502 1504 1506 1509 1511 1513 1515 1518 1520 1522 1525 1527 1530 1532 1533
1473 1474 1475 1477 1478 1473 1472 1473 1473 1474 1474 1474 1475 1476 1477 1478 1480 1481 1483 1484 1485 1486 1488 1489 1490 1492 1494 1496 1497 1499 1501 1504 1506 1508 1511 1513 1515 1517 1519 1521 1524 1526 1529 1530
1470 1470 1471 1472 1470 1471 1472 1473 1473 1474 1475 1475 1475 1476 1476 1477 1479 1480 1482 1483 1484 1485 1486 1487 1489 1490 1492 1493 1495 1497 1499 1501 1503 1505 1508 1510 1512 1514 1516 1518 1521 1523 1525 1526
1472 1471 1471 1471 1470 1470 1471 1472 1473 1473 1474 1474 1474 1475 1476 1477 1477 1478 1479 1481 1482 1483 1484 1486 1487 1488 1489 1491 1493 1495 1496 1498 1500 1502 1505 1507 1509 1511 1513 1515 1517 1519 1521 1523
1471 1472 1473 1472 1471 1471 1471 1471 1472 1472 1472 1473 1474 1474 1475 1475 1476 1476 1478 1479 1480 1481 1483 1484 1485 1486 1488 1489 1490 1492 1494 1496 1497 1499 1501 1503 1506 1508 1510 1512 1514 1516 1518 1520